| time (UTC) | temp C | wind direction | speed KPH | gust KPH | rain 1hr cm | rain 24hr cm | rain mn cm | humidity % | barometer mb |
| 20260906174025 | 24 | 63 | 6.4 | 14.5 | 0.00 | 0.00 | 0.00 | 73 | 1019.5 |
| 20260906173522 | 25 | 65 | 3.2 | 14.5 | 0.00 | 0.00 | 0.00 | 73 | 1019.7 |
| 20260906173053 | 25 | 69 | 3.2 | 14.5 | 0.00 | 0.00 | 0.00 | 73 | 1019.8 |
| 20260906172524 | 25 | 63 | 3.2 | 9.7 | 0.00 | 0.00 | 0.00 | 74 | 1019.8 |
| 20260906172023 | 24 | 57 | 3.2 | 14.5 | 0.00 | 0.00 | 0.00 | 74 | 1019.7 |
| 20260906171546 | 24 | 67 | 4.8 | 14.5 | 0.00 | 0.00 | 0.00 | 74 | 1019.7 |
| 20260906171025 | 24 | 76 | 3.2 | 16.1 | 0.00 | 0.00 | 0.00 | 74 | 1019.8 |
| 20260906170524 | 24 | 69 | 3.2 | 16.1 | 0.00 | 0.00 | 0.00 | 75 | 1020.1 |
| 20260906170048 | 24 | 41 | 4.8 | 16.1 | 0.00 | 0.00 | 0.00 | 75 | 1020.0 |
| 20260906165523 | 24 | 53 | 1.6 | 14.5 | 0.00 | 0.00 | 0.00 | 76 | 1020.0 |
| 20260906165023 | 24 | 65 | 6.4 | 16.1 | 0.00 | 0.00 | 0.00 | 75 | 1020.1 |
| 20260906164546 | 24 | 60 | 3.2 | 16.1 | 0.00 | 0.00 | 0.00 | 76 | 1020.0 |
| 20260906164027 | 23 | 60 | 4.8 | 14.5 | 0.00 | 0.00 | 0.00 | 76 | 1020.0 |
| 20260906163524 | 23 | 75 | 4.8 | 14.5 | 0.00 | 0.00 | 0.00 | 75 | 1020.2 |
| 20260906163045 | 23 | 71 | 4.8 | 14.5 | 0.00 | 0.00 | 0.00 | 75 | 1020.3 |
| 20260906162522 | 24 | 56 | 3.2 | 14.5 | 0.00 | 0.00 | 0.00 | 75 | 1020.5 |
| 20260906162024 | 24 | 60 | 3.2 | 16.1 | 0.00 | 0.00 | 0.00 | 76 | 1020.4 |
| 20260906161542 | 23 | 59 | 6.4 | 16.1 | 0.00 | 0.00 | 0.00 | 76 | 1020.4 |
| 20260906161024 | 23 | 61 | 3.2 | 8.0 | 0.00 | 0.00 | 0.00 | 77 | 1020.5 |
| 20260906160523 | 23 | 59 | 1.6 | 11.3 | 0.00 | 0.00 | 0.00 | 78 | 1020.4 |
| 20260906160052 | 23 | 74 | 3.2 | 12.9 | 0.00 | 0.00 | 0.00 | 79 | 1020.4 |
| 20260906155525 | 23 | 51 | 4.8 | 12.9 | 0.00 | 0.00 | 0.00 | 80 | 1020.5 |
| 20260906155022 | 22 | 0 | 0.0 | 12.9 | 0.00 | 0.00 | 0.00 | 80 | 1020.5 |
| 20260906154548 | 22 | 69 | 3.2 | 12.9 | 0.00 | 0.00 | 0.00 | 81 | 1020.5 |
| 20260906154023 | 22 | 0 | 0.0 | 16.1 | 0.00 | 0.00 | 0.00 | 81 | 1020.4 |
| 20260906153522 | 22 | 61 | 4.8 | 16.1 | 0.00 | 0.00 | 0.00 | 81 | 1020.5 |
| 20260906153047 | 22 | 64 | 3.2 | 9.7 | 0.00 | 0.00 | 0.00 | 82 | 1020.6 |
| 20260906152523 | 22 | 82 | 1.6 | 14.5 | 0.00 | 0.00 | 0.00 | 83 | 1020.6 |
| 20260906152024 | 22 | 62 | 3.2 | 14.5 | 0.00 | 0.00 | 0.00 | 82 | 1020.7 |
| 20260906151544 | 22 | 0 | 1.6 | 9.7 | 0.00 | 0.00 | 0.00 | 83 | 1020.7 |
| 20260906151027 | 22 | 72 | 0.0 | 8.0 | 0.00 | 0.00 | 0.00 | 83 | 1020.7 |
| 20260906150523 | 22 | 72 | 3.2 | 11.3 | 0.00 | 0.00 | 0.00 | 83 | 1020.7 |
| 20260906150049 | 22 | 61 | 4.8 | 11.3 | 0.00 | 0.00 | 0.00 | 82 | 1020.5 |
| 20260906145525 | 22 | 63 | 3.2 | 14.5 | 0.00 | 0.00 | 0.00 | 83 | 1020.5 |
| 20260906145030 | 22 | 65 | 3.2 | 14.5 | 0.00 | 0.00 | 0.00 | 82 | 1020.5 |
| 20260906144547 | 22 | 0 | 0.0 | 8.0 | 0.00 | 0.00 | 0.00 | 83 | 1020.6 |
| 20260906144021 | 22 | 0 | 1.6 | 14.5 | 0.00 | 0.00 | 0.00 | 83 | 1020.6 |
| 20260906143523 | 22 | 50 | 3.2 | 14.5 | 0.00 | 0.00 | 0.00 | 83 | 1020.5 |
| 20260906143046 | 22 | 49 | 4.8 | 11.3 | 0.00 | 0.00 | 0.00 | 82 | 1020.5 |
| 20260906142528 | 22 | 54 | 1.6 | 9.7 | 0.00 | 0.00 | 0.00 | 83 | 1020.3 |
| 20260906142026 | 22 | 40 | 3.2 | 14.5 | 0.00 | 0.00 | 0.00 | 84 | 1020.3 |
| 20260906141545 | 22 | 46 | 3.2 | 14.5 | 0.00 | 0.00 | 0.00 | 84 | 1020.4 |
| 20260906141024 | 22 | 56 | 4.8 | 12.9 | 0.00 | 0.00 | 0.00 | 84 | 1020.4 |
| 20260906140523 | 22 | 63 | 3.2 | 12.9 | 0.00 | 0.00 | 0.00 | 84 | 1020.5 |
| 20260906140051 | 22 | 41 | 4.8 | 11.3 | 0.00 | 0.00 | 0.00 | 84 | 1020.4 |
| 20260906135524 | 21 | 45 | 1.6 | 9.7 | 0.00 | 0.00 | 0.00 | 86 | 1020.5 |
| 20260906135022 | 21 | 59 | 3.2 | 11.3 | 0.00 | 0.00 | 0.00 | 85 | 1020.4 |
| 20260906134549 | 21 | 51 | 3.2 | 11.3 | 0.00 | 0.00 | 0.00 | 85 | 1020.3 |
| 20260906134024 | 21 | 57 | 3.2 | 14.5 | 0.00 | 0.00 | 0.00 | 86 | 1020.3 |
| 20260906133522 | 21 | 0 | 1.6 | 14.5 | 0.00 | 0.00 | 0.00 | 86 | 1020.2 |
| 20260906133105 | 21 | 57 | 4.8 | 14.5 | 0.00 | 0.00 | 0.00 | 87 | 1020.2 |
| 20260906132523 | 21 | 61 | 1.6 | 9.7 | 0.00 | 0.00 | 0.00 | 88 | 1020.1 |
| 20260906132024 | 21 | 59 | 3.2 | 8.0 | 0.00 | 0.00 | 0.00 | 88 | 1020.1 |
| 20260906131549 | 21 | 56 | 1.6 | 8.0 | 0.00 | 0.00 | 0.00 | 88 | 1020.2 |
| 20260906131023 | 21 | 46 | 1.6 | 8.0 | 0.00 | 0.00 | 0.00 | 89 | 1020.2 |
| 20260906130523 | 20 | 53 | 0.0 | 12.9 | 0.00 | 0.00 | 0.00 | 90 | 1020.1 |
| 20260906130049 | 20 | 0 | 3.2 | 12.9 | 0.00 | 0.00 | 0.00 | 90 | 1020.1 |
| 20260906125526 | 20 | 59 | 3.2 | 9.7 | 0.00 | 0.00 | 0.00 | 90 | 1020.0 |
| 20260906125024 | 20 | 50 | 0.0 | 6.4 | 0.00 | 0.00 | 0.00 | 90 | 1020.0 |
| 20260906124551 | 20 | 51 | 1.6 | 8.0 | 0.00 | 0.00 | 0.00 | 90 | 1020.1 |
| 20260906124023 | 20 | 62 | 3.2 | 8.0 | 0.00 | 0.00 | 0.00 | 90 | 1020.1 |
| 20260906123522 | 20 | 61 | 1.6 | 8.0 | 0.00 | 0.00 | 0.00 | 90 | 1019.9 |
| 20260906123048 | 20 | 59 | 1.6 | 6.4 | 0.00 | 0.00 | 0.00 | 91 | 1019.9 |
| 20260906122523 | 20 | 60 | 0.0 | 8.0 | 0.00 | 0.00 | 0.00 | 91 | 1020.0 |
| 20260906122026 | 20 | 48 | 0.0 | 8.0 | 0.00 | 0.00 | 0.00 | 91 | 1020.0 |
| 20260906121545 | 20 | 54 | 1.6 | 8.0 | 0.00 | 0.00 | 0.00 | 91 | 1020.0 |
| 20260906121024 | 20 | 0 | 0.0 | 4.8 | 0.00 | 0.00 | 0.00 | 91 | 1020.0 |
| 20260906120528 | 20 | 0 | 0.0 | 6.4 | 0.00 | 0.00 | 0.00 | 91 | 1019.9 |
| 20260906120049 | 20 | 57 | 0.0 | 6.4 | 0.00 | 0.00 | 0.00 | 91 | 1019.8 |
| 20260906115523 | 20 | 0 | 0.0 | 4.8 | 0.00 | 0.00 | 0.00 | 90 | 1019.8 |
| 20260906115024 | 20 | 55 | 0.0 | 4.8 | 0.00 | 0.00 | 0.00 | 90 | 1019.7 |
| 20260906114547 | 20 | 0 | 0.0 | 3.2 | 0.00 | 0.00 | 0.00 | 90 | 1019.7 |
| 20260906114022 | 20 | 57 | 0.0 | 3.2 | 0.00 | 0.00 | 0.00 | 90 | 1019.7 |
| 20260906113524 | 20 | 0 | 0.0 | 0.0 | 0.00 | 0.00 | 0.00 | 90 | 1019.6 |
| 20260906113046 | 20 | 0 | 0.0 | 0.0 | 0.00 | 0.00 | 0.00 | 90 | 1019.5 |
| 20260906112525 | 20 | 0 | 0.0 | 1.6 | 0.00 | 0.00 | 0.00 | 89 | 1019.5 |
| 20260906112023 | 20 | 0 | 0.0 | 1.6 | 0.00 | 0.00 | 0.00 | 89 | 1019.4 |
| 20260906111553 | 20 | 0 | 0.0 | 1.6 | 0.00 | 0.00 | 0.00 | 89 | 1019.4 |
| 20260906111023 | 20 | 0 | 0.0 | 3.2 | 0.00 | 0.00 | 0.00 | 90 | 1019.3 |
| 20260906110524 | 20 | 0 | 0.0 | 3.2 | 0.00 | 0.00 | 0.00 | 89 | 1019.3 |
| 20260906110054 | 20 | 0 | 0.0 | 3.2 | 0.00 | 0.00 | 0.00 | 89 | 1019.2 |
| 20260906105526 | 21 | 0 | 0.0 | 3.2 | 0.00 | 0.00 | 0.00 | 89 | 1019.3 |
| 20260906105021 | 21 | 0 | 0.0 | 3.2 | 0.00 | 0.00 | 0.00 | 89 | 1019.2 |
| 20260906104549 | 21 | 0 | 0.0 | 3.2 | 0.00 | 0.00 | 0.00 | 89 | 1019.2 |
| 20260906104024 | 21 | 0 | 0.0 | 1.6 | 0.00 | 0.00 | 0.00 | 89 | 1019.4 |
| 20260906103524 | 21 | 0 | 0.0 | 3.2 | 0.00 | 0.00 | 0.00 | 89 | 1019.2 |
| 20260906103046 | 21 | 0 | 0.0 | 4.8 | 0.00 | 0.00 | 0.00 | 88 | 1019.2 |
| 20260906102524 | 21 | 0 | 0.0 | 4.8 | 0.00 | 0.00 | 0.00 | 89 | 1019.2 |
| 20260906102023 | 21 | 61 | 0.0 | 4.8 | 0.00 | 0.00 | 0.00 | 88 | 1019.4 |
| 20260906101548 | 21 | 0 | 0.0 | 4.8 | 0.00 | 0.00 | 0.00 | 88 | 1019.2 |
| 20260906101024 | 21 | 53 | 0.0 | 4.8 | 0.00 | 0.00 | 0.00 | 88 | 1019.1 |
| 20260906100528 | 21 | 0 | 1.6 | 4.8 | 0.00 | 0.00 | 0.00 | 88 | 1019.1 |
| 20260906100048 | 21 | 63 | 0.0 | 4.8 | 0.00 | 0.00 | 0.00 | 88 | 1019.1 |
| 20260906095524 | 21 | 0 | 0.0 | 1.6 | 0.00 | 0.00 | 0.00 | 88 | 1019.1 |
| 20260906095027 | 21 | 0 | 0.0 | 4.8 | 0.00 | 0.00 | 0.00 | 88 | 1018.8 |
| 20260906094542 | 21 | 0 | 0.0 | 4.8 | 0.00 | 0.00 | 0.00 | 88 | 1018.4 |
| 20260906094024 | 21 | 51 | 0.0 | 3.2 | 0.00 | 0.00 | 0.00 | 88 | 1018.3 |
| 20260906093524 | 21 | 0 | 0.0 | 4.8 | 0.00 | 0.00 | 0.00 | 88 | 1018.3 |
| 20260906093058 | 21 | 46 | 0.0 | 4.8 | 0.00 | 0.00 | 0.00 | 87 | 1018.4 |
| 20260906092525 | 21 | 0 | 0.0 | 3.2 | 0.00 | 0.00 | 0.00 | 87 | 1018.3 |
| 20260906092023 | 21 | 0 | 0.0 | 3.2 | 0.00 | 0.00 | 0.00 | 87 | 1018.2 |
| 20260906091544 | 21 | 55 | 0.0 | 4.8 | 0.00 | 0.00 | 0.00 | 87 | 1018.2 |
| 20260906091025 | 21 | 0 | 0.0 | 4.8 | 0.00 | 0.00 | 0.00 | 87 | 1018.2 |
| 20260906090525 | 21 | 0 | 0.0 | 3.2 | 0.00 | 0.00 | 0.00 | 87 | 1018.3 |
| 20260906090109 | 21 | 0 | 0.0 | 3.2 | 0.00 | 0.00 | 0.00 | 87 | 1018.3 |
| 20260906085524 | 21 | 0 | 0.0 | 4.8 | 0.00 | 0.00 | 0.00 | 87 | 1018.3 |
| 20260906085025 | 21 | 58 | 0.0 | 4.8 | 0.00 | 0.00 | 0.00 | 86 | 1018.3 |
| 20260906084554 | 21 | 48 | 1.6 | 4.8 | 0.00 | 0.00 | 0.00 | 86 | 1018.2 |
| 20260906084022 | 21 | 53 | 0.0 | 6.4 | 0.00 | 0.00 | 0.00 | 86 | 1018.1 |
| 20260906083526 | 21 | 57 | 1.6 | 6.4 | 0.00 | 0.00 | 0.00 | 86 | 1018.2 |
| 20260906083047 | 21 | 0 | 1.6 | 6.4 | 0.00 | 0.00 | 0.00 | 86 | 1018.1 |
| 20260906082523 | 21 | 61 | 1.6 | 6.4 | 0.00 | 0.00 | 0.00 | 86 | 1018.2 |
| 20260906082025 | 21 | 61 | 1.6 | 4.8 | 0.00 | 0.00 | 0.00 | 86 | 1018.2 |
| 20260906081547 | 21 | 57 | 1.6 | 4.8 | 0.00 | 0.00 | 0.00 | 86 | 1018.3 |
| 20260906081023 | 21 | 57 | 0.0 | 6.4 | 0.00 | 0.00 | 0.00 | 86 | 1018.4 |
| 20260906080526 | 21 | 54 | 0.0 | 6.4 | 0.00 | 0.00 | 0.00 | 86 | 1018.3 |
| 20260906080045 | 21 | 0 | 0.0 | 6.4 | 0.00 | 0.00 | 0.00 | 86 | 1018.2 |
| 20260906075525 | 21 | 0 | 0.0 | 3.2 | 0.00 | 0.00 | 0.00 | 86 | 1018.4 |
| 20260906075024 | 21 | 0 | 0.0 | 3.2 | 0.00 | 0.00 | 0.00 | 85 | 1018.3 |
| 20260906074550 | 21 | 59 | 0.0 | 3.2 | 0.00 | 0.00 | 0.00 | 85 | 1018.4 |
| 20260906074023 | 21 | 55 | 0.0 | 3.2 | 0.00 | 0.00 | 0.00 | 85 | 1018.4 |
| 20260906073524 | 21 | 0 | 0.0 | 3.2 | 0.00 | 0.00 | 0.00 | 85 | 1018.5 |
| 20260906073047 | 22 | 0 | 0.0 | 3.2 | 0.00 | 0.00 | 0.00 | 85 | 1018.4 |
| 20260906072524 | 22 | 0 | 0.0 | 3.2 | 0.00 | 0.00 | 0.00 | 85 | 1018.4 |
| 20260906072022 | 22 | 0 | 0.0 | 3.2 | 0.00 | 0.00 | 0.00 | 85 | 1018.4 |
| 20260906071548 | 22 | 59 | 0.0 | 3.2 | 0.00 | 0.00 | 0.00 | 85 | 1018.6 |
| 20260906071024 | 22 | 0 | 0.0 | 3.2 | 0.00 | 0.00 | 0.00 | 84 | 1018.6 |
| 20260906070525 | 22 | 0 | 0.0 | 3.2 | 0.00 | 0.00 | 0.00 | 84 | 1018.7 |
| 20260906070047 | 22 | 0 | 0.0 | 3.2 | 0.00 | 0.00 | 0.00 | 84 | 1018.8 |
| 20260906065527 | 22 | 0 | 0.0 | 3.2 | 0.00 | 0.00 | 0.00 | 84 | 1018.7 |
| 20260906065026 | 22 | 0 | 0.0 | 3.2 | 0.00 | 0.00 | 0.00 | 84 | 1018.7 |
| 20260906064544 | 22 | 59 | 0.0 | 4.8 | 0.00 | 0.00 | 0.00 | 84 | 1018.7 |
| 20260906064022 | 22 | 0 | 0.0 | 4.8 | 0.00 | 0.00 | 0.00 | 84 | 1018.7 |
| 20260906063526 | 22 | 0 | 0.0 | 3.2 | 0.00 | 0.00 | 0.00 | 84 | 1018.8 |
| 20260906063053 | 22 | 57 | 0.0 | 4.8 | 0.00 | 0.00 | 0.00 | 84 | 1018.7 |
| 20260906062524 | 22 | 0 | 0.0 | 4.8 | 0.00 | 0.00 | 0.00 | 84 | 1018.8 |
| 20260906062024 | 22 | 0 | 0.0 | 4.8 | 0.00 | 0.00 | 0.00 | 84 | 1018.6 |
| 20260906061556 | 22 | 55 | 0.0 | 4.8 | 0.00 | 0.00 | 0.00 | 83 | 1018.7 |
| 20260906061024 | 22 | 0 | 0.0 | 3.2 | 0.00 | 0.00 | 0.00 | 83 | 1018.7 |
| 20260906060523 | 22 | 0 | 0.0 | 3.2 | 0.00 | 0.00 | 0.00 | 83 | 1018.9 |
| 20260906060047 | 22 | 0 | 0.0 | 3.2 | 0.00 | 0.00 | 0.00 | 83 | 1018.8 |
| 20260906055523 | 22 | 0 | 0.0 | 3.2 | 0.00 | 0.00 | 0.00 | 83 | 1018.8 |
| 20260906055023 | 22 | 58 | 0.0 | 0.0 | 0.00 | 0.00 | 0.00 | 84 | 1018.8 |
| 20260906054545 | 22 | 0 | 0.0 | 0.0 | 0.00 | 0.00 | 0.00 | 84 | 1018.8 |
| 20260906054022 | 22 | 0 | 0.0 | 0.0 | 0.00 | 0.00 | 0.00 | 84 | 1018.8 |
| 20260906053525 | 22 | 0 | 0.0 | 1.6 | 0.00 | 0.00 | 0.00 | 84 | 1018.7 |
| 20260906053102 | 22 | 0 | 0.0 | 1.6 | 0.00 | 0.00 | 0.00 | 84 | 1018.7 |
| 20260906052547 | 22 | 0 | 0.0 | 1.6 | 0.00 | 0.00 | 0.00 | 84 | 1018.7 |
| 20260906052024 | 22 | 0 | 0.0 | 3.2 | 0.00 | 0.00 | 0.00 | 84 | 1018.7 |
| 20260906051546 | 22 | 0 | 0.0 | 3.2 | 0.00 | 0.00 | 0.00 | 84 | 1018.7 |
| 20260906051023 | 22 | 0 | 0.0 | 3.2 | 0.00 | 0.00 | 0.00 | 84 | 1018.7 |
| 20260906050523 | 22 | 0 | 0.0 | 3.2 | 0.00 | 0.00 | 0.00 | 84 | 1018.7 |
| 20260906050044 | 22 | 0 | 0.0 | 1.6 | 0.00 | 0.00 | 0.00 | 84 | 1018.7 |
| 20260906045525 | 22 | 0 | 0.0 | 1.6 | 0.00 | 0.00 | 0.00 | 84 | 1018.9 |
| 20260906045025 | 22 | 0 | 0.0 | 0.0 | 0.00 | 0.00 | 0.00 | 83 | 1018.9 |
| 20260906044540 | 22 | 0 | 0.0 | 0.0 | 0.00 | 0.00 | 0.00 | 83 | 1018.9 |
| 20260906044025 | 22 | 0 | 0.0 | 0.0 | 0.00 | 0.00 | 0.00 | 84 | 1019.1 |
| 20260906043523 | 22 | 0 | 0.0 | 0.0 | 0.00 | 0.00 | 0.00 | 84 | 1019.0 |
| 20260906043046 | 22 | 0 | 0.0 | 0.0 | 0.00 | 0.00 | 0.00 | 84 | 1019.1 |
| 20260906042522 | 22 | 0 | 0.0 | 0.0 | 0.00 | 0.00 | 0.00 | 83 | 1018.9 |
| 20260906042024 | 22 | 0 | 0.0 | 0.0 | 0.00 | 0.00 | 0.00 | 83 | 1018.9 |
| 20260906041554 | 22 | 0 | 0.0 | 0.0 | 0.00 | 0.00 | 0.00 | 83 | 1018.9 |
| 20260906041025 | 22 | 0 | 0.0 | 0.0 | 0.00 | 0.00 | 0.00 | 82 | 1019.0 |
| 20260906040524 | 22 | 0 | 0.0 | 0.0 | 0.00 | 0.00 | 0.00 | 82 | 1018.9 |
| 20260906040047 | 22 | 0 | 0.0 | 0.0 | 0.00 | 0.00 | 0.00 | 81 | 1019.1 |
| 20260906035527 | 22 | 0 | 0.0 | 0.0 | 0.00 | 0.00 | 0.00 | 81 | 1019.1 |
| 20260906035021 | 22 | 0 | 0.0 | 0.0 | 0.00 | 0.00 | 0.00 | 81 | 1019.1 |
| 20260906034544 | 22 | 0 | 0.0 | 0.0 | 0.00 | 0.00 | 0.00 | 80 | 1019.2 |
| 20260906034025 | 22 | 0 | 0.0 | 0.0 | 0.00 | 0.00 | 0.00 | 80 | 1019.2 |
| 20260906033522 | 22 | 0 | 0.0 | 0.0 | 0.00 | 0.00 | 0.00 | 79 | 1019.1 |
| 20260906033047 | 23 | 0 | 0.0 | 0.0 | 0.00 | 0.00 | 0.00 | 79 | 1019.1 |
| 20260906032522 | 23 | 0 | 0.0 | 0.0 | 0.00 | 0.00 | 0.00 | 78 | 1019.2 |
| 20260906032024 | 23 | 0 | 0.0 | 0.0 | 0.00 | 0.00 | 0.00 | 78 | 1019.2 |
| 20260906031542 | 23 | 0 | 0.0 | 0.0 | 0.00 | 0.00 | 0.00 | 77 | 1019.3 |
| 20260906031024 | 23 | 0 | 0.0 | 0.0 | 0.00 | 0.00 | 0.00 | 77 | 1019.2 |
| 20260906030523 | 23 | 0 | 0.0 | 0.0 | 0.00 | 0.00 | 0.00 | 77 | 1019.2 |
| 20260906030050 | 23 | 0 | 0.0 | 0.0 | 0.00 | 0.00 | 0.00 | 76 | 1019.2 |
| 20260906025524 | 23 | 0 | 0.0 | 0.0 | 0.00 | 0.00 | 0.00 | 76 | 1019.2 |
| 20260906025023 | 24 | 0 | 0.0 | 0.0 | 0.00 | 0.00 | 0.00 | 76 | 1019.2 |
| 20260906024607 | 24 | 0 | 0.0 | 1.6 | 0.00 | 0.00 | 0.00 | 75 | 1019.3 |
| 20260906024023 | 24 | 0 | 0.0 | 1.6 | 0.00 | 0.00 | 0.00 | 75 | 1019.2 |
| 20260906023523 | 24 | 0 | 0.0 | 3.2 | 0.00 | 0.00 | 0.00 | 74 | 1019.1 |
| 20260906023054 | 25 | 0 | 0.0 | 3.2 | 0.00 | 0.00 | 0.00 | 74 | 1018.9 |
| 20260906022522 | 25 | 0 | 0.0 | 3.2 | 0.00 | 0.00 | 0.00 | 73 | 1018.8 |
| 20260906022024 | 25 | 0 | 0.0 | 4.8 | 0.00 | 0.00 | 0.00 | 73 | 1018.7 |
| 20260906021546 | 25 | 0 | 0.0 | 4.8 | 0.00 | 0.00 | 0.00 | 73 | 1018.5 |
| 20260906021024 | 25 | 0 | 1.6 | 4.8 | 0.00 | 0.00 | 0.00 | 73 | 1018.5 |
| 20260906020523 | 25 | 0 | 1.6 | 4.8 | 0.00 | 0.00 | 0.00 | 73 | 1018.3 |
| 20260906020042 | 25 | 0 | 1.6 | 4.8 | 0.00 | 0.00 | 0.00 | 73 | 1018.1 |
| 20260906015522 | 25 | 65 | 0.0 | 8.0 | 0.00 | 0.00 | 0.00 | 73 | 1018.0 |
| 20260906015024 | 25 | 0 | 1.6 | 16.1 | 0.00 | 0.00 | 0.00 | 73 | 1017.7 |
| 20260906014552 | 25 | 59 | 1.6 | 16.1 | 0.00 | 0.00 | 0.00 | 73 | 1017.5 |
| 20260906014024 | 25 | 51 | 4.8 | 16.1 | 0.00 | 0.00 | 0.00 | 72 | 1017.4 |
| 20260906013529 | 25 | 0 | 1.6 | 9.7 | 0.00 | 0.00 | 0.00 | 72 | 1017.3 |
| 20260906013047 | 25 | 53 | 3.2 | 9.7 | 0.00 | 0.00 | 0.00 | 72 | 1017.2 |
| 20260906012523 | 25 | 0 | 1.6 | 4.8 | 0.00 | 0.00 | 0.00 | 71 | 1017.2 |
| 20260906012023 | 25 | 53 | 0.0 | 4.8 | 0.00 | 0.00 | 0.00 | 70 | 1017.0 |
| 20260906011556 | 25 | 0 | 1.6 | 6.4 | 0.00 | 0.00 | 0.00 | 70 | 1016.9 |
| 20260906011024 | 26 | 0 | 0.0 | 6.4 | 0.00 | 0.00 | 0.00 | 69 | 1016.9 |
| 20260906010524 | 26 | 57 | 1.6 | 6.4 | 0.00 | 0.00 | 0.00 | 69 | 1016.9 |
| 20260906010101 | 26 | 0 | 1.6 | 6.4 | 0.00 | 0.00 | 0.00 | 69 | 1016.7 |
| 20260906005523 | 26 | 55 | 0.0 | 6.4 | 0.00 | 0.00 | 0.00 | 69 | 1016.5 |
| 20260906005022 | 26 | 58 | 1.6 | 8.0 | 0.00 | 0.00 | 0.00 | 68 | 1016.5 |
| 20260906004548 | 26 | 0 | 0.0 | 8.0 | 0.00 | 0.00 | 0.00 | 68 | 1016.4 |
| 20260906004026 | 26 | 59 | 1.6 | 8.0 | 0.00 | 0.00 | 0.00 | 68 | 1016.3 |
| 20260906003525 | 26 | 43 | 1.6 | 4.8 | 0.00 | 0.00 | 0.00 | 67 | 1016.2 |
| 20260906003045 | 26 | 57 | 0.0 | 4.8 | 0.00 | 0.00 | 0.00 | 67 | 1016.1 |
| 20260906002523 | 26 | 59 | 0.0 | 9.7 | 0.00 | 0.00 | 0.00 | 67 | 1016.1 |
| 20260906002023 | 26 | 0 | 1.6 | 9.7 | 0.00 | 0.00 | 0.00 | 66 | 1016.0 |
| 20260906001559 | 27 | 49 | 3.2 | 9.7 | 0.00 | 0.00 | 0.00 | 66 | 1016.1 |
| 20260906001027 | 27 | 40 | 1.6 | 6.4 | 0.00 | 0.00 | 0.00 | 66 | 1016.2 |
| 20260906000524 | 27 | 54 | 1.6 | 8.0 | 0.00 | 0.00 | 0.00 | 65 | 1016.3 |
| 20260906000050 | 27 | 49 | 1.6 | 9.7 | 0.00 | 0.00 | 0.00 | 65 | 1016.4 |
| 20260905235522 | 27 | 44 | 1.6 | 11.3 | 0.00 | 0.00 | 0.00 | 65 | 1016.4 |
| 20260905235025 | 27 | 28 | 1.6 | 11.3 | 0.00 | 0.00 | 0.00 | 65 | 1016.3 |
| 20260905234548 | 27 | 0 | 1.6 | 9.7 | 0.00 | 0.00 | 0.00 | 65 | 1016.2 |
| 20260905234025 | 27 | 0 | 0.0 | 6.4 | 0.00 | 0.00 | 0.00 | 64 | 1016.3 |
| 20260905233524 | 27 | 0 | 1.6 | 4.8 | 0.00 | 0.00 | 0.00 | 63 | 1016.3 |
| 20260905233045 | 27 | 69 | 0.0 | 8.0 | 0.00 | 0.00 | 0.00 | 63 | 1016.2 |
| 20260905232527 | 27 | 48 | 3.2 | 9.7 | 0.00 | 0.00 | 0.00 | 63 | 1016.0 |
| 20260905232025 | 27 | 34 | 1.6 | 11.3 | 0.00 | 0.00 | 0.00 | 62 | 1016.0 |
| 20260905231545 | 27 | 63 | 3.2 | 14.5 | 0.00 | 0.00 | 0.00 | 62 | 1015.9 |
| 20260905231025 | 27 | 39 | 1.6 | 14.5 | 0.00 | 0.00 | 0.00 | 62 | 1015.9 |
| 20260905230523 | 27 | 70 | 4.8 | 11.3 | 0.00 | 0.00 | 0.00 | 62 | 1015.8 |
| 20260905230052 | 27 | 0 | 3.2 | 12.9 | 0.00 | 0.00 | 0.00 | 63 | 1015.9 |
| 20260905225522 | 27 | 0 | 3.2 | 12.9 | 0.00 | 0.00 | 0.00 | 63 | 1016.0 |
| 20260905225022 | 27 | 41 | 1.6 | 11.3 | 0.00 | 0.00 | 0.00 | 64 | 1016.0 |
| 20260905224550 | 28 | 63 | 3.2 | 11.3 | 0.00 | 0.00 | 0.00 | 64 | 1016.1 |
| 20260905224024 | 28 | 55 | 1.6 | 9.7 | 0.00 | 0.00 | 0.00 | 63 | 1016.0 |
| 20260905223523 | 28 | 22 | 1.6 | 9.7 | 0.00 | 0.00 | 0.00 | 64 | 1016.0 |
| 20260905223043 | 28 | 26 | 1.6 | 9.7 | 0.00 | 0.00 | 0.00 | 64 | 1016.1 |
| 20260905222523 | 28 | 36 | 1.6 | 8.0 | 0.00 | 0.00 | 0.00 | 64 | 1016.1 |
| 20260905222025 | 28 | 38 | 3.2 | 14.5 | 0.00 | 0.00 | 0.00 | 64 | 1016.2 |
| 20260905221553 | 28 | 64 | 1.6 | 14.5 | 0.00 | 0.00 | 0.00 | 64 | 1016.2 |
| 20260905221024 | 28 | 30 | 4.8 | 12.9 | 0.00 | 0.00 | 0.00 | 64 | 1016.2 |
| 20260905220522 | 28 | 48 | 1.6 | 14.5 | 0.00 | 0.00 | 0.00 | 64 | 1016.1 |
| 20260905220048 | 28 | 107 | 3.2 | 14.5 | 0.00 | 0.00 | 0.00 | 65 | 1016.1 |
| 20260905215523 | 28 | 20 | 1.6 | 9.7 | 0.00 | 0.00 | 0.00 | 65 | 1016.1 |
| 20260905215022 | 28 | 47 | 3.2 | 11.3 | 0.00 | 0.00 | 0.00 | 65 | 1016.1 |
| 20260905214541 | 28 | 61 | 3.2 | 16.1 | 0.00 | 0.00 | 0.00 | 65 | 1016.1 |
| 20260905214025 | 28 | 59 | 1.6 | 16.1 | 0.00 | 0.00 | 0.00 | 65 | 1016.1 |
| 20260905213523 | 28 | 67 | 4.8 | 16.1 | 0.00 | 0.00 | 0.00 | 65 | 1016.0 |
| 20260905213052 | 28 | 26 | 3.2 | 14.5 | 0.00 | 0.00 | 0.00 | 65 | 1016.0 |
| 20260905212525 | 27 | 34 | 4.8 | 17.7 | 0.00 | 0.00 | 0.00 | 65 | 1016.0 |
| 20260905212022 | 27 | 55 | 1.6 | 17.7 | 0.00 | 0.00 | 0.00 | 65 | 1016.1 |
| 20260905211548 | 27 | 11 | 3.2 | 12.9 | 0.00 | 0.00 | 0.00 | 65 | 1016.3 |
| 20260905211023 | 27 | 38 | 3.2 | 9.7 | 0.00 | 0.00 | 0.00 | 65 | 1016.4 |
| 20260905210523 | 27 | 45 | 1.6 | 14.5 | 0.00 | 0.00 | 0.00 | 66 | 1016.6 |
| 20260905210045 | 27 | 61 | 3.2 | 14.5 | 0.00 | 0.00 | 0.00 | 67 | 1016.8 |
| 20260905205525 | 27 | 47 | 3.2 | 14.5 | 0.00 | 0.00 | 0.00 | 67 | 1017.0 |
| 20260905205023 | 27 | 19 | 3.2 | 11.3 | 0.00 | 0.00 | 0.00 | 67 | 1017.0 |
| 20260905204540 | 27 | 21 | 3.2 | 11.3 | 0.00 | 0.00 | 0.00 | 67 | 1017.1 |
| 20260905204026 | 27 | 45 | 1.6 | 11.3 | 0.00 | 0.00 | 0.00 | 67 | 1017.2 |
| 20260905203524 | 27 | 41 | 1.6 | 11.3 | 0.00 | 0.00 | 0.00 | 68 | 1017.2 |
| 20260905203058 | 27 | 42 | 1.6 | 12.9 | 0.00 | 0.00 | 0.00 | 68 | 1017.3 |
| 20260905202526 | 27 | 53 | 3.2 | 12.9 | 0.00 | 0.00 | 0.00 | 69 | 1017.4 |
| 20260905202024 | 27 | 19 | 1.6 | 12.9 | 0.00 | 0.00 | 0.00 | 70 | 1017.4 |
| 20260905201557 | 26 | 35 | 3.2 | 12.9 | 0.00 | 0.00 | 0.00 | 70 | 1017.5 |
| 20260905201024 | 26 | 114 | 0.0 | 14.5 | 0.00 | 0.00 | 0.00 | 71 | 1017.6 |
| 20260905200524 | 26 | 24 | 0.0 | 14.5 | 0.00 | 0.00 | 0.00 | 71 | 1017.8 |
| 20260905200044 | 26 | 22 | 4.8 | 14.5 | 0.00 | 0.00 | 0.00 | 70 | 1017.9 |
| 20260905195531 | 26 | 62 | 3.2 | 6.4 | 0.00 | 0.00 | 0.00 | 70 | 1018.0 |
| 20260905195026 | 26 | 0 | 1.6 | 9.7 | 0.00 | 0.00 | 0.00 | 71 | 1018.0 |
| 20260905194541 | 26 | 0 | 1.6 | 11.3 | 0.00 | 0.00 | 0.00 | 70 | 1018.2 |
| 20260905194024 | 26 | 60 | 1.6 | 11.3 | 0.00 | 0.00 | 0.00 | 71 | 1018.1 |
| 20260905193523 | 26 | 56 | 1.6 | 9.7 | 0.00 | 0.00 | 0.00 | 71 | 1018.1 |
| 20260905193047 | 26 | 55 | 1.6 | 6.4 | 0.00 | 0.00 | 0.00 | 72 | 1018.0 |
| 20260905192524 | 26 | 61 | 1.6 | 6.4 | 0.00 | 0.00 | 0.00 | 72 | 1018.1 |
| 20260905192025 | 26 | 0 | 1.6 | 6.4 | 0.00 | 0.00 | 0.00 | 72 | 1018.1 |
| 20260905191546 | 26 | 41 | 0.0 | 6.4 | 0.00 | 0.00 | 0.00 | 73 | 1018.2 |
| 20260905191024 | 25 | 38 | 1.6 | 6.4 | 0.00 | 0.00 | 0.00 | 73 | 1018.2 |
| 20260905190525 | 25 | 57 | 0.0 | 6.4 | 0.00 | 0.00 | 0.00 | 74 | 1018.2 |
| 20260905190042 | 25 | 0 | 0.0 | 6.4 | 0.00 | 0.00 | 0.00 | 74 | 1018.2 |
| 20260905185524 | 25 | 41 | 0.0 | 6.4 | 0.00 | 0.00 | 0.00 | 74 | 1018.2 |
| 20260905185022 | 25 | 69 | 0.0 | 4.8 | 0.00 | 0.00 | 0.00 | 75 | 1018.2 |
| 20260905184547 | 25 | 0 | 0.0 | 11.3 | 0.00 | 0.00 | 0.00 | 75 | 1018.2 |
| 20260905184023 | 25 | 59 | 3.2 | 11.3 | 0.00 | 0.00 | 0.00 | 75 | 1018.1 |
| 20260905183523 | 25 | 53 | 0.0 | 8.0 | 0.00 | 0.00 | 0.00 | 76 | 1018.1 |
| 20260905183106 | 25 | 36 | 1.6 | 8.0 | 0.00 | 0.00 | 0.00 | 76 | 1018.1 |
| 20260905182524 | 25 | 29 | 1.6 | 6.4 | 0.00 | 0.00 | 0.00 | 76 | 1018.2 |
| 20260905182026 | 25 | 24 | 0.0 | 6.4 | 0.00 | 0.00 | 0.00 | 76 | 1018.3 |
| 20260905181547 | 25 | 0 | 0.0 | 6.4 | 0.00 | 0.00 | 0.00 | 77 | 1018.4 |
| 20260905181022 | 25 | 0 | 1.6 | 6.4 | 0.00 | 0.00 | 0.00 | 78 | 1018.4 |
| 20260905180523 | 25 | 42 | 1.6 | 8.0 | 0.00 | 0.00 | 0.00 | 78 | 1018.5 |
| 20260905180049 | 24 | 0 | 0.0 | 8.0 | 0.00 | 0.00 | 0.00 | 79 | 1018.7 |
| 20260905175526 | 24 | 33 | 1.6 | 8.0 | 0.00 | 0.00 | 0.00 | 79 | 1018.6 |
| 20260905175024 | 24 | 0 | 0.0 | 6.4 | 0.00 | 0.00 | 0.00 | 80 | 1018.7 |
| 20260905174549 | 24 | 25 | 1.6 | 6.4 | 0.00 | 0.00 | 0.00 | 80 | 1018.7 |